Date String (YYYY-MM-DD hh:mm:ss) UTC,Instrument flags,absolute air pressure of the measurement (hPa),sample flow rate (lpm),inlet stack bypass flow (lpm),air temperature of the measurement (°C),ambient temperature measured by the external sensor (°C),aerosol sample conditioner tube jacket temperature (°C),OPC LED temperature (°C),internal box temperature (°C),relative humidity of the measurement (%),span deviation,mass concentration of particles derived from Lorenz-Mie calculation of OPC scattering (μg/m³),mass concentration of particles derived from Lorenz-Mie calculation of OPC scattering (μg/m³),mass concentration of particles derived from Lorenz-Mie calculation of OPC scattering (μg/m³)
DateTimeUTC,F1_M11,P_M11,Q1_M11,Q2_M11,T1_M11,T2_M11,T3_M11,T4_M11,T5_M11,U1_M11,ZSPAN_M11,X0_M11,X2_M11,X1_M11
2023-08-30 10:00:00,SystemResetWarning,0834.0,5.00,000.00,028.7,024.8,000.0,037.1,030.0,26.2,0000.7,0009.46,0005.23,0004.81
2023-08-30 10:01:00,SystemResetWarning,0834.0,5.00,000.00,028.6,024.1,000.0,037.0,029.8,26.3,0002.0,0008.60,0005.20,0004.81
2023-08-30 10:02:00,SystemResetWarning,0833.9,5.01,000.00,028.4,024.3,000.0,037.0,029.5,26.6,0002.2,0008.17,0005.14,0004.81
2023-08-30 10:03:00,SystemResetWarning,0833.9,5.00,000.00,028.4,024.7,000.0,037.0,029.5,26.7,0001.7,0008.25,0005.16,0004.80
2023-08-30 10:04:00,SystemResetWarning,0833.8,4.99,000.00,028.3,025.1,000.0,037.0,029.6,26.8,0000.8,0008.42,0005.18,0004.79
2023-08-30 10:05:00,SystemResetWarning,0833.9,5.00,000.00,028.3,025.5,000.0,037.0,029.7,26.9,0000.5,0008.46,0005.17,0004.79
2023-08-30 10:06:00,SystemResetWarning,0833.9,5.01,000.00,028.3,025.8,000.0,037.0,029.8,26.9,0000.6,0008.45,0005.15,0004.78
2023-08-30 10:07:00,SystemResetWarning,0833.9,5.00,000.00,028.3,026.1,000.0,037.0,029.8,26.8,-000.1,0008.26,0005.14,0004.77
2023-08-30 10:08:00,SystemResetWarning,0833.9,5.00,000.00,028.3,026.3,000.0,037.0,029.8,26.8,-000.4,0008.56,0005.15,0004.78
2023-08-30 10:09:00,SystemResetWarning,0833.8,4.99,000.00,028.3,026.5,000.0,037.0,029.9,26.8,-000.8,0008.50,0005.14,0004.78
2023-08-30 10:10:00,SystemResetWarning,0833.9,5.00,000.00,028.3,026.7,000.0,037.0,029.9,26.8,-000.8,0008.51,0005.15,0004.78
2023-08-30 10:11:00,SystemResetWarning,0833.9,5.00,000.00,028.4,026.8,000.0,037.0,029.9,26.6,-000.8,0008.53,0005.15,0004.79
2023-08-30 10:12:00,SystemResetWarning,0833.8,5.00,000.00,028.4,026.9,000.0,037.0,030.0,26.5,-001.0,0008.56,0005.19,0004.81
2023-08-30 10:13:00,SystemResetWarning,0833.8,5.00,000.00,028.4,027.0,000.0,037.0,030.0,26.6,-001.1,0008.77,0005.20,0004.82
2023-08-30 10:14:00,SystemResetWarning,0833.8,5.00,000.00,028.4,027.0,000.0,037.0,030.0,26.6,-000.8,0009.04,0005.19,0004.84
2023-08-30 10:15:00,SystemResetWarning,0833.9,5.00,000.00,028.4,027.1,000.0,037.0,030.0,26.5,-000.7,0009.03,0005.22,0004.87
2023-08-30 10:16:00,SystemResetWarning,0833.9,5.00,000.00,028.4,027.2,000.0,037.0,030.1,26.4,-000.5,0009.47,0005.22,0004.90
2023-08-30 10:17:00,SystemResetWarning,0833.9,5.00,000.00,028.5,027.2,000.0,037.0,030.1,26.3,-000.5,0009.98,0005.29,0004.94
2023-08-30 10:18:00,SystemResetWarning,0833.9,5.00,000.00,028.5,027.3,000.0,037.1,030.1,26.2,-000.0,0010.03,0005.33,0004.98
2023-08-30 10:19:00,SystemResetWarning,0833.9,5.00,000.00,028.5,027.3,000.0,037.1,030.1,26.2,-000.7,0009.79,0005.36,0005.01
2023-08-30 10:20:00,SystemResetWarning,0834.0,5.00,000.00,028.5,027.3,000.0,037.1,030.2,26.3,-000.4,0010.29,0005.43,0005.06
2023-08-30 10:21:00,SystemResetWarning,0834.0,4.99,000.00,028.6,027.4,000.0,037.1,030.2,26.4,-000.5,0010.49,0005.51,0005.11
2023-08-30 10:22:00,SystemResetWarning,0833.9,5.00,000.00,028.6,027.4,000.0,037.1,030.2,26.4,-000.3,0010.58,0005.56,0005.17
2023-08-30 10:23:00,SystemResetWarning,0833.9,5.00,000.00,028.6,027.5,000.0,037.1,030.2,26.4,-000.8,0010.66,0005.57,0005.19
2023-08-30 10:24:00,SystemResetWarning,0833.9,5.00,000.00,028.6,027.5,000.0,037.2,030.3,26.5,-000.9,0011.05,0005.65,0005.24
2023-08-30 10:25:00,SystemResetWarning,0833.8,5.00,000.00,028.7,027.5,000.0,037.2,030.3,26.4,-000.6,0011.07,0005.69,0005.28
2023-08-30 10:26:00,SystemResetWarning,0833.8,5.00,000.00,028.7,027.5,000.0,037.2,030.3,26.2,-000.2,0011.30,0005.71,0005.31
2023-08-30 10:27:00,SystemResetWarning,0833.8,5.00,000.00,028.7,027.6,000.0,037.2,030.3,26.1,0000.1,0010.98,0005.75,0005.34
2023-08-30 10:28:00,SystemResetWarning,0833.8,5.00,000.00,028.7,027.6,000.0,037.2,030.4,26.0,0000.4,0010.60,0005.74,0005.34
2023-08-30 10:29:00,SystemResetWarning,0833.8,5.00,000.00,028.7,027.6,000.0,037.3,030.4,25.8,0000.5,0010.85,0005.76,0005.34
2023-08-30 10:30:00,SystemResetWarning,0833.8,5.00,000.00,028.8,027.7,000.0,037.3,030.4,25.6,0000.6,0011.34,0005.80,0005.35
2023-08-30 10:31:00,SystemResetWarning,0833.8,4.99,000.00,028.8,026.9,000.0,037.2,030.3,25.6,0000.4,0011.31,0005.80,0005.34
2023-08-30 10:32:00,SystemResetWarning,0833.7,4.99,000.00,028.7,024.9,000.0,037.1,030.0,25.4,0000.4,0011.74,0005.81,0005.32
2023-08-30 10:33:00,SystemResetWarning,0833.7,5.01,000.00,028.6,024.2,000.0,037.0,029.8,25.5,0000.4,0011.74,0005.78,0005.29
2023-08-30 10:34:00,SystemResetWarning,0833.7,5.01,000.00,028.5,024.3,000.0,037.0,029.5,25.6,0001.0,0011.63,0005.75,0005.25
2023-08-30 10:35:00,SystemResetWarning,0833.7,4.99,000.00,028.4,024.7,000.0,037.0,029.5,25.7,0001.3,0011.11,0005.72,0005.22
2023-08-30 10:36:00,SystemResetWarning,0833.8,5.01,000.00,028.3,025.1,000.0,037.0,029.6,25.9,0001.3,0010.71,0005.70,0005.20
2023-08-30 10:37:00,SystemResetWarning,0833.7,5.00,000.00,028.3,025.5,000.0,037.0,029.7,25.8,0001.0,0010.37,0005.70,0005.19
2023-08-30 10:38:00,SystemResetWarning,0833.7,5.00,000.00,028.3,025.8,000.0,037.0,029.8,25.8,0000.7,0010.35,0005.68,0005.17
2023-08-30 10:39:00,SystemResetWarning,0833.7,5.00,000.00,028.3,026.1,000.0,037.0,029.8,25.8,0000.2,0010.35,0005.66,0005.16
2023-08-30 10:40:00,SystemResetWarning,0833.7,5.00,000.00,028.3,026.4,000.0,037.0,029.9,25.6,-000.3,0010.43,0005.65,0005.16
2023-08-30 10:41:00,SystemResetWarning,0833.8,5.00,000.00,028.3,026.6,000.0,037.0,029.9,26.1,-000.4,0009.88,0005.57,0005.12
2023-08-30 10:42:00,SystemResetWarning,0833.7,5.00,000.00,028.4,026.7,000.0,037.0,029.9,26.2,-000.0,0009.99,0005.54,0005.11
2023-08-30 10:43:00,SystemResetWarning,0833.7,5.00,000.00,028.4,026.9,000.0,037.0,030.0,26.1,0000.2,0009.48,0005.51,0005.10
2023-08-30 10:44:00,SystemResetWarning,0833.7,5.00,000.00,028.4,027.0,000.0,037.0,030.0,25.9,0000.3,0009.44,0005.52,0005.11
2023-08-30 10:45:00,SystemResetWarning,0833.7,5.00,000.00,028.4,027.1,000.0,037.0,030.0,26.0,0000.1,0009.46,0005.53,0005.12
2023-08-30 10:46:00,SystemResetWarning,0833.7,5.00,000.00,028.4,027.1,000.0,037.0,030.0,26.1,-000.2,0009.40,0005.49,0005.09
2023-08-30 10:47:00,SystemResetWarning,0833.7,5.00,000.00,028.5,027.2,000.0,037.0,030.1,26.2,-000.5,0009.36,0005.45,0005.05
2023-08-30 10:48:00,SystemResetWarning,0833.7,5.00,000.00,028.5,027.2,000.0,037.0,030.1,26.2,-000.2,0009.35,0005.42,0005.02
2023-08-30 10:49:00,SystemResetWarning,0833.7,5.00,000.00,028.5,027.2,000.0,037.0,030.1,26.2,-000.6,0009.21,0005.36,0004.97
2023-08-30 10:50:00,SystemResetWarning,0833.7,5.00,000.00,028.5,027.3,000.0,037.1,030.1,26.6,-000.6,0009.12,0005.34,0004.93
2023-08-30 10:51:00,SystemResetWarning,0833.7,5.00,000.00,028.5,027.3,000.0,037.1,030.1,26.6,-000.7,0009.30,0005.30,0004.88
2023-08-30 10:52:00,SystemResetWarning,0833.7,5.00,000.00,028.5,027.4,000.0,037.1,030.1,26.7,-000.9,0009.38,0005.26,0004.84
2023-08-30 10:53:00,SystemResetWarning,0833.7,5.00,000.00,028.6,027.4,000.0,037.1,030.2,26.8,-001.0,0008.85,0005.21,0004.79
2023-08-30 10:54:00,SystemResetWarning,0833.6,5.00,000.00,028.6,027.4,000.0,037.1,030.2,26.8,-000.9,0008.84,0005.20,0004.75
2023-08-30 10:55:00,SystemResetWarning,0833.6,5.00,000.00,028.6,027.4,000.0,037.2,030.2,26.8,-001.3,0008.84,0005.16,0004.70
2023-08-30 10:56:00,SystemResetWarning,0833.7,5.00,000.00,028.6,027.5,000.0,037.2,030.2,26.6,-001.4,0009.06,0005.11,0004.66
2023-08-30 10:57:00,SystemResetWarning,0833.7,5.00,000.00,028.6,027.5,000.0,037.2,030.3,26.6,-001.6,0009.35,0005.11,0004.64
2023-08-30 10:58:00,SystemResetWarning,0833.7,5.00,000.00,028.7,027.5,000.0,037.2,030.3,26.5,-001.0,0009.42,0005.13,0004.63
2023-08-30 10:59:00,SystemResetWarning,0833.7,5.00,000.00,028.7,027.5,000.0,037.2,030.3,26.4,-001.1,0009.39,0005.10,0004.61
